Dewpoint
12 12 13 13 9 8 8 7 6 6 6 5 5 5 4 3 3 3 3 4 4 2 1 1 1 3 6 6 6 5 10 9 8 12 11 16 19 26 32 32 35 46 47 48 53 59 61 62 63 64 64 64 65 65 66 66 67 67 66 65 65 65 65 65 66 66 66 66 65 67 66 65 66 66 67 68 68 68 69 69 69 69 69 67 69 69
13 15 15 13 11 10 10 9 8 8 8 6 4 5 5 5 2 2 1 1 1 1 2 4 2 6 6 6 5 6 7 3 6 14 22 16 20 35 32 31 33 39 33 43 56 59 60 60 64 65 64 64 64 64 65 65 66 66 66 66 66 66 65 67 66 66 66 66 65 65 65 66 66 67 67 68 68 67 66 67 68 67 67 67 67 69
19 14 14 14 14 13 12 11 10 9 6 5 6 7 5 4 3 3 2 2 2 2 3 4 3 3 7 7 7 9 6 11 11 11 13 26 26 24 21 27 38 34 39 45 53 52 56 59 63 63 64 64 65 65 65 65 66 66 66 67 66 66 67 66 66 66 66 67 67 66 66 66 66 67 68 68 68 68 68 68 68 67 67 68 67 69
20 16 15 15 15 16 16 15 13 9 6 7 7 7 4 4 3 3 2 2 1 2 2 3 3 6 9 11 11 11 9 12 12 8 7 9 24 22 25 28 31 28 38 50 53 55 57 60 63 63 63 64 65 65 65 65 65 65 66 66 67 67 67 66 66 66 67 67 67 68 68 68 67 67 68 68 69 68 68 67 67 67 68 68 67 67
17 18 18 18 16 14 14 14 11 9 10 9 8 6 6 6 6 6 5 4 4 3 3 4 2 4 8 7 7 14 14 11 11 12 16 17 12 17 22 25 29 34 50 47 51 57 59 61 62 62 63 64 64 64 64 65 65 64 65 66 67 67 67 67 66 66 66 66 67 67 67 68 67 67 67 67 67 67 67 67 66 67 67 67 68 68
18 19 19 19 18 18 14 14 14 12 11 10 10 11 11 12 10 8 7 6 5 7 4 3 4 5 13 9 9 15 13 13 14 14 15 21 37 28 23 40 44 26 51 48 49 54 60 61 63 63 63 63 64 64 64 65 65 65 65 66 67 67 67 67 67 67 67 66 65 64 64 63 64 64 64 63 63 64 64 63 64 66 67 67 67 68
20 20 20 18 18 18 17 16 16 13 12 13 13 14 13 11 9 6 6 5 7 8 7 5 4 9 11 12 14 16 13 14 19 21 15 18 15 21 24 23 21 21 34 49 53 56 59 62 63 63 63 63 63 64 65 65 65 65 65 66 67 66 67 67 67 67 66 66 65 65 64 63 63 63 63 64 64 64 63 65 66 66 67 65 67 66
20 19 18 19 18 17 17 14 14 14 13 13 14 14 13 11 8 7 5 6 7 8 6 6 5 7 7 8 12 11 16 16 20 20 27 18 19 16 18 20 29 24 29 49 54 57 61 63 64 63 63 63 63 65 65 65 66 65 66 65 67 67 67 67 67 67 67 66 66 65 65 64 64 64 64 64 65 67 66 66 66 67 68 67 65 67
21 20 19 18 18 18 18 17 16 15 15 15 14 14 13 15 15 14 11 10 9 9 10 6 6 9 11 13 12 15 14 16 21 25 25 20 19 22 26 15 27 27 31 45 53 58 61 63 64 65 64 64 64 65 65 65 65 66 66 65 66 66 67 68 67 67 67 67 66 65 65 64 64 64 64 66 66 66 67 66 67 67 67 67 67 66
20 20 19 18 19 18 18 18 17 17 16 16 16 17 16 15 14 14 13 12 13 13 14 9 7 9 11 13 12 21 15 22 28 24 20 21 23 20 24 26 29 26 37 34 50 58 61 63 65 66 65 65 64 65 66 66 66 66 66 65 65 65 67 67 67 67 67 67 66 66 65 64 63 64 65 67 66 66 67 67 67 67 68 67 68 68
19 24 24 18 18 18 18 18 17 16 15 16 17 16 16 14 15 16 17 16 15 17 14 11 10 9 12 13 15 19 38 25 29 24 24 23 39 35 38 38 33 21 32 29 44 59 61 62 65 66 65 65 66 66 66 66 66 66 66 65 65 65 66 67 67 67 67 66 66 65 65 64 63 63 65 65 64 65 66 66 66 67 68 69 68 68
18 18 18 19 20 20 20 18 18 18 17 17 16 16 16 18 19 21 21 18 20 17 14 13 12 12 13 19 16 21 24 22 31 36 39 42 40 41 41 40 42 44 33 32 35 53 59 62 65 66 65 66 65 66 66 66 66 66 65 65 64 65 66 67 67 67 67 66 66 66 65 64 64 64 64 63 63 64 65 66 65 67 68 67 68 69
18 18 19 19 24 19 19 18 18 18 18 17 17 17 19 18 20 18 20 20 19 17 17 16 28 25 30 24 22 45 41 39 41 42 43 42 41 43 39 39 40 41 43 45 41 55 58 63 65 65 65 66 65 66 66 66 66 66 65 65 64 64 66 66 66 66 67 66 65 66 65 65 65 64 64 65 64 65 65 65 66 66 66 66 66 67
21 21 22 20 20 22 18 16 19 18 17 17 18 20 21 19 19 21 18 22 23 22 25 24 23 21 23 23 24 24 32 36 43 44 45 44 44 43 39 39 38 41 43 47 47 46 58 64 64 65 65 65 65 66 66 66 66 66 65 65 64 64 65 67 66 66 66 66 66 66 66 66 65 65 64 64 65 66 65 66 65 66 66 66 66 67
21 23 23 23 26 24 24 20 17 18 18 18 19 19 35 25 27 25 21 21 21 26 28 25 24 27 25 43 23 23 27 39 41 43 45 45 44 45 41 40 40 43 44 45 48 50 56 64 66 66 66 65 66 66 66 66 66 65 65 65 65 64 64 66 66 66 66 66 66 66 66 66 65 65 64 64 65 65 65 65 65 66 67 67 67 67
21 22 22 21 23 24 23 23 20 19 18 19 19 18 19 21 26 19 24 25 24 23 23 24 24 26 26 29 26 29 30 33 40 40 45 44 43 44 43 43 43 44 44 45 49 52 57 63 66 66 67 66 66 67 67 66 66 66 65 65 64 64 64 65 65 65 66 66 66 66 66 66 66 65 65 65 65 66 66 66 66 67 68 67 68 68
22 23 24 25 26 22 23 24 22 21 22 22 18 20 21 22 20 27 28 26 29 24 21 24 24 21 22 25 33 34 35 33 37 39 40 42 43 45 45 45 44 44 43 45 47 50 56 59 66 66 65 66 67 67 67 67 67 66 66 65 65 65 65 64 65 65 65 66 66 66 66 66 66 66 65 65 65 66 67 67 67 67 68 68 69 69
23 19 18 21 23 22 22 24 23 21 22 22 21 20 18 17 17 21 17 22 21 19 22 21 19 20 20 28 35 30 34 36 36 37 40 43 42 42 44 46 46 46 46 45 45 51 54 57 60 62 66 66 67 67 67 67 67 67 67 65 65 65 65 64 64 65 65 65 65 65 65 66 66 66 66 66 66 66 67 67 67 67 67 67 68 68
20 17 21 22 22 22 22 21 21 22 22 21 21 20 14 17 18 20 25 19 20 21 20 20 19 21 23 31 30 35 35 38 36 37 38 38 40 41 43 44 46 46 47 45 45 46 52 55 59 60 60 66 69 69 67 67 66 66 66 66 65 65 65 65 64 64 64 65 65 65 66 66 66 66 66 66 66 66 65 66 66 67 67 67 67 67
23 22 20 22 21 20 17 14 19 21 19 20 21 17 16 18 21 18 25 21 18 17 20 18 17 17 24 33 38 40 42 42 36 36 36 36 38 39 40 40 39 42 46 43 46 49 50 51 54 56 61 56 65 66 65 65 65 65 65 66 66 65 65 65 65 65 65 65 65 65 66 66 65 65 65 66 66 66 65 65 65 65 66 66 67 67
21 29 21 26 24 20 16 18 20 21 21 19 15 12 14 24 22 19 25 14 16 21 19 19 19 20 32 35 36 39 40 38 39 37 38 40 42 40 41 44 45 42 47 48 48 48 49 52 53 55 58 55 57 67 66 66 65 65 66 66 65 65 65 65 65 65 65 65 65 66 66 66 65 66 66 66 66 66 65 65 65 65 66 66 66 67
21 18 19 20 20 17 18 21 20 18 16 14 12 16 21 23 22 19 18 13 14 18 23 20 22 24 41 33 35 41 39 35 33 38 37 35 37 44 46 49 48 49 49 49 52 51 52 51 50 45 48 56 57 59 65 65 66 66 65 64 65 63 63 63 64 64 64 65 65 65 65 66 66 66 66 67 66 66 65 65 65 65 65 65 66 66
33 33 30 21 20 18 15 13 14 9 8 5 9 16 20 24 23 18 13 14 8 3 -1 7 16 19 35 31 31 33 34 31 35 31 34 32 34 38 41 44 48 49 48 47 50 51 53 56 56 51 48 48 54 59 60 65 64 64 63 64 65 65 63 63 64 64 65 65 65 65 66 66 66 66 67 67 66 65 64 65 65 65 65 65 66 66
35 27 27 26 24 22 20 17 12 6 4 4 6 12 15 18 17 16 13 14 10 16 23 18 18 19 30 32 35 34 34 32 34 34 34 45 38 40 38 39 40 45 48 48 50 54 53 51 54 51 51 49 49 57 61 63 64 63 62 63 62 62 62 64 64 64 64 65 65 66 66 66 66 67 67 66 66 65 65 65 65 65 65 64 65 65
28 29 22 21 19 16 13 11 9 10 6 9 10 15 15 15 16 17 15 25 26 26 22 21 19 18 30 26 32 31 38 37 35 40 35 31 37 36 34 34 41 42 44 44 48 49 49 46 44 45 46 45 45 45 56 61 63 62 63 62 61 61 63 63 64 64 64 65 66 66 66 67 67 66 66 66 66 65 65 65 65 65 64 64 64 64
30 31 28 21 19 16 15 13 15 17 19 22 22 24 26 25 27 27 24 27 24 26 23 21 20 21 24 25 23 31 34 35 36 35 33 31 40 36 34 39 41 40 42 41 46 48 52 45 41 45 47 45 45 43 44 48 64 63 61 62 62 62 63 63 63 63 64 64 65 66 66 66 66 66 66 66 66 65 65 65 65 64 64 63 62 63
33 33 30 27 24 19 18 17 24 26 23 21 25 25 24 27 25 27 27 25 23 26 25 25 23 24 24 24 24 25 28 27 30 30 26 27 32 37 42 42 41 42 41 40 48 48 48 48 51 49 50 51 49 49 47 46 46 60 62 62 63 63 62 62 62 63 63 64 65 65 65 65 66 66 66 66 66 66 65 65 65 64 63 63 63 63
30 27 28 28 27 25 24 24 24 25 24 24 24 25 25 25 26 27 26 24 27 24 21 25 25 25 24 24 24 25 25 26 27 26 26 27 28 30 28 32 36 32 39 41 44 44 45 49 49 51 52 52 48 46 44 46 47 45 60 63 62 62 62 62 63 64 64 63 64 64 65 65 66 66 66 66 66 65 65 65 66 64 63 63 63 64
28 24 25 24 22 21 23 24 26 28 27 26 25 25 25 24 23 24 26 24 26 24 22 26 27 26 23 22 23 23 25 26 23 24 26 27 25 25 26 23 25 27 34 36 41 46 47 45 45 47 48 48 47 45 43 40 48 50 51 61 62 61 62 64 64 64 63 63 63 64 65 66 66 66 66 66 65 65 65 65 65 65 63 64 65 66
30 25 27 24 22 22 25 24 24 24 24 24 23 23 23 23 25 25 24 23 23 23 23 23 24 25 22 22 21 24 27 24 23 25 26 21 22 24 31 32 32 34 34 34 35 44 44 44 45 45 47 49 46 45 44 41 42 48 51 50 56 64 64 64 64 65 64 62 62 63 64 65 66 65 65 65 65 65 65 65 65 65 64 64 65 66
27 23 29 27 24 25 23 20 18 20 22 22 20 21 20 22 22 23 24 26 29 25 23 23 24 23 23 25 23 25 27 20 20 19 19 24 21 30 30 29 32 33 33 33 31 39 43 43 43 42 41 44 46 47 45 43 42 44 49 53 52 55 63 64 66 65 63 63 62 63 64 65 64 64 65 64 65 65 65 65 65 65 65 65 66 66
31 26 28 27 24 24 24 21 21 20 20 18 19 19 18 20 20 20 22 23 23 22 23 23 21 19 21 23 22 22 22 20 19 20 22 24 21 26 28 29 30 31 31 30 32 41 43 44 45 45 44 43 44 45 45 46 45 43 45 50 53 54 57 64 65 65 63 64 64 65 64 65 63 63 63 64 65 65 64 65 65 66 66 66 66 67
27 25 26 25 23 23 23 20 21 20 17 15 17 18 19 19 18 18 18 21 21 22 21 22 18 20 21 23 20 19 20 18 17 15 16 18 27 30 31 31 29 30 28 36 42 42 41 43 45 48 49 46 44 45 47 47 47 46 47 49 54 55 56 63 65 63 61 61 62 63 64 62 62 62 63 63 63 64 65 65 65 65 66 66 66 67
26 26 25 27 24 24 24 23 21 20 16 16 22 23 21 21 20 19 18 20 23 24 17 17 18 22 22 22 20 22 21 19 21 27 22 30 33 32 29 30 30 30 36 42 41 40 41 43 46 47 49 50 48 46 47 48 47 49 50 48 49 53 55 54 63 61 61 61 61 63 63 62 62 62 62 61 63 64 64 64 64 65 66 66 67 66
26 26 25 25 24 23 22 21 19 17 17 22 22 22 17 18 16 14 14 13 18 18 18 18 18 19 19 17 20 20 20 17 18 26 29 30 33 33 33 34 42 41 41 41 41 41 43 46 47 48 50 47 48 51 50 47 45 48 49 49 48 48 51 54 63 63 61 60 60 61 62 61 60 61 61 61 61 62 63 64 65 65 65 66 66 66
26 26 26 27 25 24 22 19 16 15 21 23 20 21 23 18 18 19 21 17 14 16 20 19 19 18 20 17 15 20 30 30 33 33 34 33 32 35 34 37 39 40 39 39 42 46 45 40 44 46 49 50 47 47 46 47 48 47 48 50 49 48 51 56 61 61 60 59 59 60 61 61 59 59 60 60 59 60 62 63 64 64 65 66 66 66
28 27 27 26 27 24 22 20 18 21 20 20 21 20 17 17 18 21 20 18 21 21 19 21 21 20 21 22 21 28 30 31 31 31 31 28 36 37 37 37 38 39 40 43 43 44 46 47 44 47 48 46 44 43 47 48 48 48 48 50 49 47 48 53 62 60 60 59 59 61 63 62 62 60 60 59 61 61 61 63 64 65 65 65 65 65
26 24 26 26 27 26 24 21 19 17 15 17 20 20 21 24 26 29 26 22 27 24 24 23 23 23 23 19 20 19 31 31 27 28 27 35 33 33 34 35 35 37 37 37 40 41 43 45 45 43 43 44 44 46 46 47 49 48 48 48 50 50 47 50 57 61 59 60 60 62 64 63 62 62 63 62 62 63 64 64 64 64 65 64 64 64
26 27 27 27 26 28 26 21 18 17 18 20 21 21 22 22 31 30 22 19 23 25 27 26 22 30 36 38 34 23 26 28 27 27 35 35 36 35 33 33 32 35 37 34 33 34 36 43 43 40 41 45 43 44 47 46 47 48 48 49 49 51 52 50 53 56 59 59 60 62 62 62 62 62 63 62 61 61 62 64 63 64 64 64 63 64
24 25 27 28 27 26 23 20 21 22 20 23 23 22 18 19 30 22 16 17 35 35 33 31 33 35 37 38 37 37 37 33 23 26 35 34 36 35 34 33 34 33 30 30 32 36 37 39 36 39 42 42 45 47 46 47 46 50 50 49 49 51 52 52 51 53 55 62 62 62 62 63 61 61 61 61 61 61 62 62 63 62 63 64 63 63
18 23 24 22 21 21 24 22 22 21 23 24 21 21 18 27 24 19 16 19 34 34 32 33 34 36 38 37 36 34 37 36 36 35 35 34 33 34 35 37 32 32 32 32 34 42 36 35 36 37 39 40 43 44 44 45 46 47 48 50 50 50 50 52 53 54 55 57 62 62 62 62 61 60 60 61 61 61 62 62 62 63 63 63 63 63
16 20 21 22 19 19 19 19 20 21 23 23 23 22 23 23 18 17 27 35 34 32 33 34 33 35 34 36 37 35 36 38 38 38 38 34 34 33 32 32 32 32 32 35 41 40 37 35 39 40 39 41 43 44 45 45 46 47 47 49 50 51 51 51 52 54 53 52 59 62 61 62 62 61 61 61 62 61 61 62 62 62 64 63 62 63
17 19 18 17 18 20 21 19 19 17 26 30 32 24 28 21 15 35 35 37 35 34 35 34 34 33 33 33 34 36 37 37 37 37 37 37 35 33 33 32 34 33 33 34 35 33 34 36 37 38 41 40 41 41 42 45 46 47 48 49 50 51 52 53 54 54 53 52 52 61 61 62 61 61 61 61 61 60 60 60 60 60 62 63 63 63
23 20 19 17 19 17 21 20 18 21 33 35 25 20 21 24 29 31 32 31 31 32 32 31 31 31 32 32 33 34 36 36 36 36 35 35 35 36 35 35 33 32 33 33 32 33 38 41 41 41 41 40 40 42 44 46 46 47 48 49 49 50 52 54 55 55 54 54 54 60 61 61 61 60 60 62 61 60 60 60 60 60 60 62 63 64
20 18 18 16 20 20 17 18 19 20 34 29 25 23 24 25 27 29 29 29 27 25 29 27 28 30 30 31 35 35 33 34 34 34 34 35 35 35 35 35 35 35 36 37 35 39 38 36 40 40 40 40 42 43 43 44 46 47 48 49 50 50 50 51 54 55 55 55 55 59 61 61 63 62 61 61 61 59 60 60 60 60 60 60 61 61
21 20 26 21 16 19 19 19 22 20 20 20 21 25 22 22 21 24 22 18 20 23 24 24 26 28 31 35 36 36 37 37 37 37 38 37 35 34 37 35 33 34 33 33 35 34 33 35 37 38 39 40 39 42 45 46 45 47 48 48 49 50 50 51 52 56 56 54 54 58 60 61 63 63 63 61 61 60 61 60 61 61 61 60 59 59
20 19 18 15 18 19 19 20 18 18 18 18 16 18 21 20 18 21 22 21 20 20 19 21 20 23 23 22 22 25 35 34 35 36 37 35 34 34 35 33 34 35 34 33 36 38 36 35 36 37 39 42 43 42 42 45 45 45 46 47 47 49 50 50 52 54 56 56 55 56 58 62 60 61 60 61 61 63 63 62 62 61 58 58 58 58
17 21 16 16 15 14 17 15 15 16 17 18 16 16 16 17 18 18 20 22 21 23 22 21 22 20 19 19 20 22 24 27 28 30 28 26 28 30 31 31 32 32 33 35 37 40 38 37 35 37 40 43 44 44 44 44 44 44 45 46 46 48 50 51 51 53 55 56 57 58 60 60 56 57 58 62 62 60 61 62 62 61 60 58 58 59
19 22 17 18 16 15 15 14 14 15 17 17 17 16 17 17 17 18 18 17 18 19 18 19 21 20 19 20 22 23 19 20 22 24 26 27 28 28 29 28 30 32 33 34 37 39 37 38 37 40 43 44 45 45 45 45 45 45 47 47 47 49 50 52 52 53 54 55 55 58 58 59 59 59 60 61 60 60 58 60 59 60 60 62 61 60
19 16 17 15 15 15 13 14 17 16 16 14 17 17 18 20 20 19 18 18 18 17 17 16 16 17 16 18 17 16 18 21 23 24 24 24 25 27 29 29 30 30 32 35 37 38 38 40 41 43 43 44 45 45 44 46 45 46 46 46 47 50 51 52 52 53 55 55 55 54 55 58 60 60 60 60 59 53 48 40 36 42 61 53 42 47
14 17 16 15 15 15 16 17 18 18 17 17 19 20 22 21 21 22 19 19 19 19 17 17 16 16 17 17 17 18 20 21 22 23 25 25 26 27 28 29 28 30 31 34 35 37 37 39 41 43 43 44 45 44 45 45 45 46 46 46 47 49 51 51 52 53 54 54 55 53 54 55 58 57 60 59 58 55 53 53 49 40 38 41 42 40